EUTELSAT 115 WEST B

Last updated on Jan. 24, 2020, 4:41 a.m. UTC

1 40425U 15010B   20023.66692189 -.00000033  00000-0  00000+0 0  9992
2 40425   0.0068 206.4438 0000430  70.5197 330.6819  1.00270222 18009
UTC
Height (km)
Latitude
Longitude
Inclination
Orbital Period
UTC large
Height (km)
Speed (km/s)
/
Latitude / Longitude
Inclination (degrees)
Orbital Period (minutes)
Azimuth
Elevation
Range (km)
Doppler Factor
iOS Compass Heading
iOS Angle

Next 30 passes for location: Hong Kong

Rise time Rise Azimuth (degrees) Set time Set Azimuth (degrees) Duration Max altitude (degrees)

No matching passes for this satellites